Location: Bazugues
(43.4465°N, 0.3432°E)
Time: 05:45:21
(UTC+00:00)

Cosmos 1758 - Visible Passes

Search period start: 19 April 2026 00:00
Search period end: 29 April 2026 00:00
Orbit: 478 x 497 km, 82.5° (Epoch: 18 April)

Date Brightness Start Highest point End Pass type
(mag) Time Alt. Az. Time Alt. Az. Time Alt. Az.
19 Apr 5.8 03:39:18 10° NNE 03:42:10 21° ENE 03:45:01 10° SE visible
20 Apr 6.3 03:16:01 10° NE 03:18:05 14° ENE 03:20:07 10° ESE visible
21 Apr 3.1 04:25:54 10° NNW 04:29:29 58° W 04:33:02 10° S visible
22 Apr 3.1 04:01:52 10° N 04:05:32 84° E 04:09:08 10° S visible
23 Apr 4.0 03:37:58 10° N 03:41:32 50° ENE 03:45:03 10° SSE visible
24 Apr 4.9 03:14:12 10° NNE 03:17:30 31° ENE 03:20:45 10° SE visible
25 Apr 5.7 02:50:35 10° NNE 02:53:24 21° ENE 02:56:11 10° ESE visible
25 Apr 4.2 04:25:31 10° NW 04:28:27 23° W 04:31:23 10° SW visible
26 Apr 6.1 02:27:18 10° NE 02:29:15 14° ENE 02:31:11 10° ESE visible
26 Apr 3.6 04:01:11 10° NNW 04:04:33 37° W 04:07:53 10° SSW visible
27 Apr 3.0 03:37:00 10° NNW 03:40:35 61° W 03:44:08 10° S visible
28 Apr 3.1 03:12:55 10° N 03:16:35 81° E 03:19:48 13° S visible
